Regional Weather Roundup
Issued by NWS

Home | Current Version | Previous Version | Graphics & Text | Print | Product List | Glossary On
Versions: 1 2 3 4 5 6 7 8 9 10 11 12 13 14 15 16 17 18 19 20 21 22 23 24 25 26 27 28 29 30 31 32 33 34 35 36 37 38 39 40 41 42 43 44 45 46 47 48 49 50
000
ASUS43 KLOT 291603
RWRIL

ILLINOIS REGIONAL WEATHER ROUNDUP
NATIONAL WEATHER SERVICE CHICAGO/ROMEOVILLE IL
1100 AM CDT SUN MAY 29 2016

NOTE: "FAIR" INDICATES FEW OR NO CLOUDS BELOW 12,000 FEET WITH NO
SIGNIFICANT WEATHER AND/OR OBSTRUCTIONS TO VISIBILITY.

* THESE STATIONS ARE NOT UNDER NWS QUALITY CONTROL. THEY ALSO MAY NOT
  REPORT WEATHER SUCH AS PRECIPITATION OR FOG.

ILZ001-002-007-009-015-016-024-291700-
NORTHWEST ILLINOIS

CITY           SKY/WX    TMP DP  RH WIND       PRES   REMARKS
MOLINE         MOSUNNY   74  61  63 W12G20    30.05R
STERLING*      CLOUDY    71  62  73 W13       30.04S
$$

ILZ003-004-008-010-011-017-018-291700-
NORTH CENTRAL ILLINOIS

CITY           SKY/WX    TMP DP  RH WIND       PRES   REMARKS
ROCKFORD       PTSUNNY   72  60  66 W14       30.04S
FREEPORT*      PTSUNNY   71  61  72 W14       30.03S
ROCHELLE*      PTSUNNY   69  62  76 W15       30.04S
$$

ILZ005-006-012>014-019>023-291700-
NORTHEAST ILLINOIS

CITY           SKY/WX    TMP DP  RH WIND       PRES   REMARKS
CHICAGO-OHARE  PTSUNNY   75  59  57 SW20G26   30.00R
CHICAGO-MIDWAY MOSUNNY   79  59  50 SW15G28   30.00R HX  80
AURORA         PTSUNNY   72  64  76 W16G25    30.04R
LANSING*       PTSUNNY   78  58  49 SW20G25   30.02S
WAUKEGAN       PTSUNNY   73  59  61 SW16G25   29.99R
DUPAGE AIRPORT PTSUNNY   73  59  61 W17G26    30.02R
WHEELING       PTSUNNY   74  57  55 W15G28    30.01R
NORTHERLY ISL    N/A     77  56  48 S14         N/A
NORTHERLY ISL    N/A     77  56  48 S14         N/A
$$

LMZ740>746-291700-
SOUTHERN LAKE MICHIGAN

STATION/POSITION SKY/WX   TEMP    WIND        PRES    VSBY  WAVE
                          AIR SEA DIR/SP/G                  HT/PER
                          (F)     (DEG/KT/KT) (MB)    (MI)  (FT/S)
SOUTHERN BUOY              54 50  160/ 12/ 14 1014.7          1/ 3
WILMETTE HARBOR            65 53  260/ 10/ 14   N/A           1/ 2
HARRISON CRIB              75     220/ 19/ 22   N/A
BURNHAM HARBOR             76     200/ 11/ 17   N/A
CALUMET HARBOR             75     200/ 13/ 20 1015.3F
BURNS HARBOR               75     230/ 14/ 21 1016.9R
MICHIGAN CITY              73     200/ 12/ 15   N/A
MICHIGAN CITY 6N           64 57  230/  6/  8   N/A           1
ST. JOSEPH                 65 62  200/  6/  6   N/A           1/ 3
$$

ILZ025>027-034>036-040-047-049-050-058-095>099-291700-
WEST-CENTRAL ILLINOIS

CITY           SKY/WX    TMP DP  RH WIND       PRES   REMARKS
QUINCY         SUNNY     76  59  55 NW6       30.09S
MACOMB*        SUNNY     74  60  61 W9        30.10S
PITTSFIELD*    SUNNY     77  62  59 W9        30.11R
$$

ILZ028>032-037-038-041>044-048-051>054-059>061-291700-
CENTRAL ILLINOIS

CITY           SKY/WX    TMP DP  RH WIND       PRES   REMARKS
BLOOMINGTON    SUNNY     76  63  64 W15       30.08S
DECATUR        SUNNY     81  61  50 W12       30.08S HX  82
PEORIA         SUNNY     77  59  53 NW10      30.06S
SPRINGFIELD    SUNNY     82  60  47 W13       30.08S HX  82
TAYLORVILLE    NOT AVBL
$$

ILZ033-039-045-046-055>057-062-063-291700-
EAST-CENTRAL ILLINOIS

CITY           SKY/WX    TMP DP  RH WIND       PRES   REMARKS
CHAMPAIGN      SUNNY     81  58  45 W13       30.08S HX  81
MATTOON        MOSUNNY   78  62  57 SW8       30.08F HX  80
$$

ILZ079-100>102-291700-
SOUTHWEST ILLINOIS

CITY           SKY/WX    TMP DP  RH WIND       PRES   REMARKS
BELLEVILLE     SUNNY     81  62  51 NW5       30.09S HX  82
CAHOKIA*       SUNNY     82  59  45 NW9       30.10R HX  82
SPARTA*        SUNNY     79  66  64 W6        30.11S HX  81
$$

ILZ064>066-069>071-074>076-080>082-084>086-088>090-092>094-291700-
SOUTH-CENTRAL ILLINOIS

CITY           SKY/WX    TMP DP  RH WIND       PRES   REMARKS
CARBONDALE     MOSUNNY   81  65  58 NW3       30.11R HX  83
EFFINGHAM*     MOSUNNY   80  66  61 W8        30.11S HX  82
MARION         PTSUNNY   81  68  65 SW6       30.11S HX  83
MT. VERNON     PTSUNNY   81  66  61 CALM      30.11R HX  83
SALEM*         PTSUNNY   81  65  58 NW7       30.10S HX  83
$$

ILZ067-068-072-073-078-083-087-091-291700-
SOUTHEAST ILLINOIS

CITY           SKY/WX    TMP DP  RH WIND       PRES   REMARKS
LAWRENCEVILLE  MOSUNNY   80  68  66 SW6       30.09S HX  83
FLORA*         PTSUNNY   81  70  68 NW5       30.10R HX  84
HARRISBURG*    PTSUNNY   80  72  76 CALM      30.10S HX  83
ROBINSON*      PTSUNNY   80  66  62 SW6       30.09S HX  82
$$

ABBREVIATIONS USED IN REMARKS
   TC - TEMPERATURE IN CELSIUS
  WCI - WIND CHILL INDEX
   HX - HEAT INDEX
  VSB - VISIBILITY
$$





USA.gov is the U.S. government's official web portal to all federal, state and local government web resources and services.